This is the latest recevied weather packets stored in our database for station/object KC5TIL. If no packets are shown the sender has not sent any weather packets the latest 10 day(s).
| Time | Temp. | Humidity | Pressure | Rain* | Wind** | Luminosity | Snow |
|---|---|---|---|---|---|---|---|
| 1777220763 | 23.89° C | 88% | 1010.2 hPa | 0 mm | - | 90 W/m² | - |
| 1777220459 | 23.89° C | 88% | 1010.2 hPa | 0 mm | - | 52 W/m² | - |
| 1777220159 | 23.89° C | 87% | 1010.2 hPa | 0 mm | - | 57 W/m² | - |
| 1777219855 | 23.89° C | 87% | 1010.3 hPa | 0 mm | - | 88 W/m² | - |
| 1777219553 | 23.89° C | 87% | 1010.1 hPa | 0 mm | - | 108 W/m² | - |
| 1777219250 | 23.89° C | 88% | 1010 hPa | 0 mm | - | 108 W/m² | - |
| 1777218945 | 23.89° C | 88% | 1010.2 hPa | 0 mm | - | 75 W/m² | - |
| 1777218641 | 23.89° C | 88% | 1010.2 hPa | 0 mm | - | 35 W/m² | - |
| 1777218336 | 23.89° C | 88% | 1010.2 hPa | 0 mm | - | 32 W/m² | - |
| 1777218034 | 23.89° C | 88% | 1010 hPa | 0 mm | - | 39 W/m² | - |
| 1777217728 | 23.89° C | 89% | 1010 hPa | 0 mm | - | 36 W/m² | - |
| 1777217425 | 23.89° C | 88% | 1010 hPa | 0 mm | - | 53 W/m² | - |
| 1777217121 | 23.89° C | 89% | 1010 hPa | 0 mm | - | 51 W/m² | - |
| 1777216818 | 23.89° C | 89% | 1010 hPa | 0 mm | - | 42 W/m² | - |
| 1777216515 | 23.89° C | 89% | 1009.8 hPa | 0 mm | - | 40 W/m² | - |
| 1777216210 | 23.89° C | 89% | 1010 hPa | 0 mm | - | 51 W/m² | - |
| 1777215903 | 23.89° C | 89% | 1010 hPa | 0 mm | - | 80 W/m² | - |
| 1777215599 | 23.33° C | 89% | 1009.8 hPa | 0 mm | - | 82 W/m² | - |
| 1777215295 | 23.33° C | 90% | 1010.1 hPa | 0 mm | - | 91 W/m² | - |
| 1777214991 | 23.33° C | 90% | 1010 hPa | 0 mm | - | 67 W/m² | - |
| 1777214691 | 23.33° C | 90% | 1010.2 hPa | 0 mm | - | 56 W/m² | - |
| 1777214385 | 23.89° C | 90% | 1010.1 hPa | 0 mm | - | 72 W/m² | - |
| 1777214079 | 23.33° C | 89% | 1010.2 hPa | 0 mm | - | 72 W/m² | - |
| 1777213779 | 23.33° C | 89% | 1010.1 hPa | 0 mm | - | 65 W/m² | - |
| 1777213475 | 23.33° C | 90% | 1010.2 hPa | 0 mm | - | 62 W/m² | - |
* Rain latest hour (hover to see other rain measurements)
** Current wind speed in m/s (hover to see current wind gust speed)